Temp_Advection
nan nan nan nan nan nan nan nan nan nan nan nan nan nan nan nan nan nan nan nan nan nan nan nan nan nan nan nan nan nan nan nan nan nan nan nan nan nan nan nan nan nan nan
nan -0 0 -0 -0 -0 -0 -0 0 -0 0 -0 -0 -0 -0 0 0 0 0 0 0 0 0 -0 -0 0 0 0 -0 -0 -0 -0 -0 -0 -0 -0 0 0 0 -0 -0 -0 nan
nan -1 -0 -1 -0 -0 -0 0 0 -0 -0 -0 -0 -0 -0 -0 -0 -0 0 0 0 0 -0 -0 -0 -0 0 0 0 0 0 -0 -0 -0 -0 -0 -0 0 0 0 -0 -0 nan
nan -0 -0 -0 0 0 0 0 0 -0 -0 -0 -0 -0 0 -0 -0 -0 0 0 0 0 0 0 -0 -0 -0 0 0 0 0 -0 -0 -0 -0 -0 -0 -0 0 0 0 0 nan
nan 0 0 0 0 0 0 0 -0 -0 -0 -0 -0 0 0 -0 0 0 0 0 0 0 0 0 -0 -0 0 0 0 0 0 -0 -0 -0 -0 -0 -0 -0 -0 0 0 0 nan
nan 1 0 0 0 0 0 0 -0 -0 -0 0 0 0 -0 0 0 0 0 0 -0 -0 0 0 0 -0 -0 0 0 0 -0 0 -0 -0 -0 -0 -0 -0 -0 -0 0 0 nan
nan 0 0 0 0 0 0 -0 -0 0 0 0 -0 -0 -0 0 0 0 0 0 -0 -0 -0 -0 0 0 -0 0 0 0 0 0 0 -0 -0 -0 -0 -0 -0 -0 -0 -0 nan
nan 0 0 0 0 -0 -0 0 0 0 -0 0 0 0 -0 -0 0 0 0 0 0 -0 -0 -0 0 0 0 -0 0 0 0 0 0 -0 -0 -0 -0 -0 -0 -0 -0 -0 nan
nan -0 0 0 0 0 0 0 -0 0 0 0 0 0 -0 0 0 0 0 -0 0 0 -0 -0 -0 0 0 0 0 0 0 0 0 0 -0 -0 -0 -0 -0 -0 0 -0 nan
nan -0 -0 0 0 0 0 -0 0 0 0 0 -0 0 0 0 -0 -0 0 0 -0 0 0 -0 -0 -0 0 0 0 0 0 0 0 0 0 -0 -0 -0 -0 -0 -0 -0 nan
nan -0 -0 0 0 0 0 0 -0 0 0 -0 0 0 0 0 0 0 -0 0 0 -0 -0 0 0 -0 -0 0 0 0 0 0 0 0 0 -0 -0 -0 0 0 -0 -0 nan
nan 0 0 -0 1 1 0 -0 0 1 1 0 0 0 -0 0 0 0 0 0 0 0 0 -0 0 0 0 -0 0 0 0 0 0 0 0 -0 -0 -0 -0 0 0 -0 nan
nan 0 -1 -0 1 1 0 -0 1 1 0 -0 -0 0 -0 -1 0 0 1 1 0 0 0 -0 -0 0 0 -0 -0 0 0 0 0 0 -0 0 -0 -0 -0 -0 1 1 nan
nan 0 -0 1 1 0 0 0 0 -0 -0 -0 -0 -0 -0 0 0 1 1 1 0 0 0 0 -0 -0 0 0 0 -0 -0 -0 0 0 -0 -0 -0 -0 -0 -0 0 1 nan
nan 0 1 1 1 0 0 0 -0 -0 -0 -0 -0 0 0 1 1 1 1 1 1 0 -0 0 0 -0 0 0 0 -0 -0 -0 -0 0 0 -0 -0 -0 -1 -0 -0 -0 nan
nan 0 1 1 0 -0 -0 0 0 -0 -0 -0 0 0 1 1 0 0 0 1 1 1 0 -0 0 0 -0 -0 0 0 -0 -0 -0 -0 0 0 0 -0 -0 -0 -0 -0 nan
nan 0 1 1 0 0 0 0 0 -0 -0 -0 0 0 0 0 1 0 1 1 1 1 0 0 0 0 -0 -0 -0 0 0 0 -0 -0 0 -0 -0 -0 -0 -0 -0 -0 nan
nan 1 1 1 0 0 0 0 0 -0 0 0 1 0 1 1 1 1 1 1 1 1 1 0 0 0 -0 -0 -0 0 0 0 0 0 0 -0 -0 -0 -0 -0 -0 -0 nan
nan 1 1 -0 1 1 1 1 0 0 0 0 0 1 1 1 0 1 1 1 0 1 1 1 0 -0 -0 -0 -0 -0 0 0 -0 0 -0 -0 0 -0 -1 -0 -0 -0 nan
nan 1 0 0 1 1 1 0 0 0 0 1 1 1 1 0 1 1 1 1 0 1 1 0 -0 -0 -0 -0 0 0 0 -0 0 -0 0 0 -0 -0 -0 -0 -0 -0 nan
nan 1 0 1 1 1 0 0 0 0 1 1 0 1 1 0 0 0 1 1 1 1 0 0 -0 -0 -0 -0 0 0 0 0 0 0 0 0 -0 -0 -0 -0 -0 -0 nan
nan 0 0 0 0 0 0 0 1 1 1 0 0 0 0 0 0 1 1 1 0 0 0 0 -0 -0 -0 0 0 0 0 0 0 -0 0 -0 0 -0 -0 -0 -0 -0 nan
nan 0 0 0 0 0 0 1 1 0 0 0 0 0 1 1 1 1 1 0 0 -0 -0 -0 -0 0 0 0 0 0 0 0 -0 -0 0 0 -0 0 0 -0 -0 -0 nan
nan 0 0 0 0 0 0 0 0 0 0 0 0 0 1 1 1 1 0 -0 -0 -0 0 0 0 0 0 0 0 0 -0 -0 -0 0 0 -0 -0 0 0 -0 -0 -0 nan
nan 0 0 0 0 0 0 0 0 0 0 0 0 0 1 1 1 1 0 -0 -0 -0 0 0 -0 -0 0 0 -0 -0 -0 0 -0 -0 0 0 -0 0 0 -0 -0 -0 nan
nan nan nan nan nan nan nan nan nan nan nan nan nan nan nan nan nan nan nan nan nan nan nan nan nan nan nan nan nan nan nan nan nan nan nan nan nan nan nan nan nan nan nan
Wind_Speed
16 15 13 14 12 11 11 10 9 8 6 6 6 5 4 4 4 4 4 9 8 7 8 8 8 10 12 12 11 12 12 10 11 11 12 12 12 12 11 10 10 10 9
15 15 13 12 12 12 11 10 8 8 7 7 6 6 6 5 5 5 4 8 12 12 11 9 9 12 13 14 14 10 11 8 10 12 14 15 14 13 12 11 10 10 10
16 16 13 13 12 12 10 10 8 9 8 8 7 6 6 5 6 5 7 6 11 12 13 14 14 13 14 16 14 11 7 6 9 12 14 16 13 11 12 13 13 13 12
16 16 15 13 11 11 11 9 9 9 8 7 6 6 6 6 6 7 7 8 8 9 12 13 17 16 14 13 14 11 7 7 9 11 15 16 15 13 14 14 12 15 13
18 17 16 14 13 12 11 11 10 9 8 8 6 7 9 6 7 7 7 9 11 13 13 12 15 14 13 12 12 15 10 10 10 12 14 17 18 17 16 16 16 12 15
19 20 16 14 12 12 11 11 11 10 9 9 10 7 7 8 8 8 9 8 8 12 10 8 9 11 10 9 13 14 12 11 10 13 14 18 20 18 18 15 15 14 13
18 17 17 13 14 13 11 12 11 12 12 12 9 7 8 8 8 12 8 3 8 8 9 10 8 8 9 9 15 16 15 14 11 12 15 17 18 15 16 13 9 11 13
16 17 17 16 15 15 15 14 13 14 15 11 8 7 5 3 7 7 7 8 6 9 11 11 10 8 10 10 12 16 16 16 14 13 16 17 15 14 11 8 11 13 14
17 17 16 17 20 21 19 18 18 21 15 13 9 4 2 4 4 8 8 8 6 8 10 12 13 11 13 9 12 14 16 15 14 14 14 15 14 10 11 12 12 16 20
12 16 18 17 17 17 22 24 23 20 17 11 7 6 8 8 2 5 8 11 14 10 12 12 12 14 15 14 13 15 15 16 15 14 14 14 12 11 13 17 17 16 13
11 12 12 13 18 20 16 18 25 30 13 14 10 8 7 6 7 8 11 8 12 14 16 12 15 14 16 16 17 17 17 16 16 16 13 12 16 15 16 16 15 15 12
18 20 20 14 16 23 19 7 2 21 30 24 22 19 16 17 17 16 13 14 17 15 16 17 14 15 18 17 16 16 16 16 16 14 14 13 17 17 19 19 13 15 20
26 23 24 25 21 14 19 14 21 25 28 25 26 25 25 22 16 17 20 20 16 15 12 16 14 15 16 16 18 16 15 15 15 18 17 18 17 20 21 21 19 17 17
22 30 30 28 23 22 20 19 24 23 21 19 18 17 15 16 17 18 18 17 16 15 11 13 17 14 14 14 15 15 16 16 16 19 19 18 18 20 21 21 19 15 13
21 21 24 29 32 31 26 26 27 24 22 20 19 19 18 18 19 19 20 19 16 9 6 7 14 14 13 14 13 14 15 14 14 15 16 16 16 21 21 19 14 13 13
18 19 20 28 28 27 26 27 27 25 24 22 21 20 20 19 18 19 18 16 17 17 13 14 16 18 16 16 15 14 14 15 17 18 17 17 17 21 19 14 13 11 10
17 20 20 21 26 29 30 29 27 26 26 23 23 21 19 19 19 18 18 17 17 17 16 16 18 19 19 16 16 16 16 16 16 16 17 15 17 22 17 14 12 11 10
18 19 20 25 29 32 30 29 28 28 27 24 21 20 20 19 18 18 19 18 19 18 18 18 21 19 16 15 16 17 17 17 15 15 14 17 18 17 14 13 13 11 11
17 18 20 26 29 28 29 29 28 28 25 23 21 20 20 17 17 18 19 20 21 19 18 18 17 17 18 18 18 18 18 17 16 16 16 16 19 16 13 11 11 9 9
16 18 20 25 27 29 29 28 28 26 24 22 21 20 18 17 18 19 19 20 21 19 16 15 16 19 17 17 17 16 15 15 15 15 15 18 14 14 14 11 10 8 6
17 17 20 24 26 26 26 26 26 24 22 21 19 18 18 19 19 20 20 20 18 15 13 12 15 17 16 14 14 12 11 12 12 14 16 12 12 12 11 11 9 7 6
17 19 20 22 24 25 26 25 24 22 21 20 19 18 19 18 17 17 16 15 14 12 12 13 14 14 13 13 13 11 10 11 11 10 10 12 11 9 9 9 7 5 5
21 22 23 24 25 26 24 23 22 22 21 19 18 17 17 17 16 15 14 12 12 12 13 14 12 12 14 12 12 12 11 13 13 10 9 10 8 8 7 6 5 4 4
24 25 25 26 26 26 24 23 23 22 20 18 17 16 15 15 14 13 13 12 13 13 13 15 14 14 14 12 14 14 14 13 11 9 9 9 6 7 6 5 5 3 4
26 26 27 28 28 27 24 24 23 21 20 18 17 16 14 14 13 13 15 13 13 13 12 13 13 14 14 14 13 12 12 11 10 8 8 7 5 4 5 5 5 4 4
28 27 28 29 29 28 26 26 24 23 21 19 18 16 14 14 13 13 15 14 14 13 12 11 11 11 11 12 12 12 10 10 9 6 7 7 5 3 2 3 3 4 4
Wind_Direction
171 175 177 181 182 190 200 208 208 223 223 222 225 224 231 251 259 262 270 300 306 305 306 307 318 321 308 308 316 326 329 340 344 343 334 326 317 310 304 310 314 318 319
174 176 178 184 194 206 206 209 213 211 214 220 225 234 234 241 246 265 272 294 305 301 292 292 296 294 299 298 302 311 318 333 349 353 350 338 321 309 303 296 297 304 308
183 183 183 193 207 219 217 220 211 207 211 219 222 234 247 250 252 258 280 274 290 304 314 306 296 286 300 302 303 293 296 328 344 348 345 351 328 306 289 286 283 289 292
198 200 204 209 220 223 222 214 212 220 219 223 224 239 252 255 267 273 276 280 283 280 287 300 294 290 290 286 292 278 281 305 328 344 343 341 348 325 294 285 287 271 279
200 202 209 217 221 223 225 218 217 215 223 225 224 237 242 252 265 272 281 280 289 282 281 284 287 297 283 272 273 272 268 281 305 325 329 331 334 329 320 293 280 284 270
210 209 211 213 222 225 214 220 222 220 209 229 229 241 248 251 259 275 271 278 283 298 302 298 299 299 292 262 258 257 273 282 296 312 320 326 330 326 322 303 279 275 275
209 214 216 221 232 223 229 222 220 217 214 214 237 245 251 260 261 253 273 267 290 304 297 300 301 262 283 253 247 255 266 269 282 299 310 317 325 330 327 318 309 284 279
216 224 224 221 226 230 227 229 217 222 216 208 208 217 268 236 243 287 276 277 290 295 291 303 302 272 259 261 257 256 263 269 284 302 304 313 322 333 328 318 302 297 287
220 227 239 246 255 254 242 221 219 222 211 209 210 187 241 235 284 277 264 299 286 288 288 291 296 284 277 272 260 259 265 275 283 299 304 312 319 323 321 312 303 300 290
213 229 242 251 260 263 252 241 232 221 220 214 222 225 227 241 250 284 273 299 304 283 278 289 284 282 280 273 261 259 262 271 279 286 292 299 301 300 304 304 294 309 294
235 251 261 269 263 263 258 252 256 229 215 226 211 245 270 262 283 261 285 280 290 300 290 277 267 271 272 272 267 263 267 269 278 283 288 287 290 305 314 309 294 277 282
242 255 248 281 296 259 243 199 211 243 246 238 244 239 265 257 280 287 282 275 268 275 272 285 273 267 268 272 272 269 269 273 279 285 290 279 287 302 311 311 293 284 262
254 255 249 248 254 235 224 240 233 243 242 251 259 260 263 274 272 268 264 262 259 273 278 286 282 281 278 275 270 269 267 273 282 288 279 286 295 306 313 311 297 281 260
257 237 247 229 234 234 231 234 230 237 231 234 246 247 240 251 264 267 264 262 267 272 271 275 283 291 289 286 279 272 277 278 279 279 282 290 299 307 310 307 304 284 278
254 256 247 232 234 238 235 231 231 227 227 234 228 238 245 255 260 262 259 256 250 251 262 239 255 284 288 289 282 276 274 280 287 283 291 291 302 307 310 305 303 294 283
245 246 244 231 234 233 221 224 227 224 228 225 235 243 253 258 267 268 269 266 257 247 246 261 269 281 284 289 289 284 279 280 280 286 283 291 302 313 308 304 301 294 288
248 245 237 235 222 219 221 228 223 227 222 229 245 251 254 262 263 267 269 265 264 263 267 272 267 270 285 283 279 281 278 282 283 285 285 288 308 314 302 304 303 294 282
247 241 233 225 223 224 224 223 222 223 225 239 247 251 254 256 261 263 263 260 261 259 258 260 261 273 270 274 274 274 277 278 285 280 285 301 313 306 299 305 303 297 284
251 244 233 229 227 225 223 223 222 224 236 245 248 252 251 254 259 259 261 261 258 261 256 257 262 266 272 273 271 271 273 273 275 277 291 296 296 292 299 299 295 293 282
251 244 237 230 227 223 223 224 225 232 241 243 245 249 250 254 255 255 258 262 268 268 267 258 255 265 268 268 269 270 271 272 271 275 284 288 284 293 301 303 306 300 281
250 242 232 230 229 225 225 226 232 239 242 244 246 248 251 251 255 257 262 266 268 263 255 255 256 260 261 262 265 267 267 265 271 277 280 275 280 287 291 295 312 312 286
251 244 236 231 229 228 228 232 237 239 240 242 246 252 257 261 262 260 260 254 256 255 249 243 246 257 258 254 255 260 258 266 269 282 270 276 278 281 290 286 304 311 281
256 251 244 240 236 235 235 236 237 238 241 245 250 255 262 261 260 260 261 249 240 238 244 247 242 243 244 245 250 248 251 254 252 263 276 279 280 283 286 305 310 309 292
253 250 247 244 241 239 235 233 234 237 242 246 252 256 256 258 259 258 260 241 238 238 240 242 235 230 235 232 238 245 244 246 253 258 265 270 280 274 271 273 278 299 304
256 253 250 247 244 242 239 238 239 240 241 243 247 251 253 256 253 244 247 237 238 240 238 237 239 241 242 242 245 243 240 237 239 244 240 242 254 271 278 283 285 279 264
258 255 251 249 247 244 240 239 239 241 240 242 244 246 250 251 245 236 240 232 235 238 239 238 233 228 226 224 225 229 228 233 231 232 224 222 225 210 241 263 260 263 262
Height
1530 1533 1536 1536 1539 1541 1544 1544 1546 1547 1547 1549 1549 1550 1551 1553 1554 1554 1553 1553 1553 1552 1552 1552 1552 1552 1551 1550 1550 1550 1549 1548 1547 1546 1545 1544 1543 1542 1542 1541 1541 1539 1538
1529 1531 1534 1536 1538 1540 1542 1543 1544 1546 1547 1548 1549 1551 1552 1552 1552 1553 1553 1552 1550 1551 1550 1550 1550 1550 1549 1548 1548 1547 1547 1547 1546 1545 1544 1541 1542 1541 1541 1540 1539 1538 1538
1528 1530 1533 1534 1536 1538 1541 1542 1544 1545 1546 1548 1548 1550 1550 1551 1552 1552 1552 1552 1550 1548 1548 1548 1547 1547 1548 1547 1546 1545 1544 1545 1544 1544 1543 1541 1538 1538 1537 1536 1536 1536 1536
1526 1529 1531 1533 1535 1537 1538 1540 1542 1543 1544 1546 1547 1549 1549 1550 1550 1550 1551 1549 1550 1548 1546 1544 1543 1544 1544 1544 1544 1543 1543 1543 1543 1542 1541 1540 1538 1535 1534 1533 1532 1532 1532
1525 1527 1529 1531 1532 1534 1536 1539 1541 1542 1543 1545 1545 1547 1547 1548 1548 1548 1548 1548 1546 1545 1543 1542 1540 1539 1539 1540 1540 1540 1539 1539 1540 1540 1540 1538 1537 1535 1532 1531 1530 1530 1529
1522 1524 1527 1529 1532 1532 1533 1535 1539 1539 1541 1543 1543 1544 1545 1545 1546 1545 1544 1543 1543 1541 1539 1538 1538 1535 1536 1537 1537 1538 1537 1538 1538 1538 1537 1537 1535 1532 1531 1527 1527 1528 1527
1519 1522 1524 1527 1530 1531 1532 1533 1535 1537 1537 1539 1542 1542 1543 1542 1543 1541 1540 1540 1540 1539 1538 1537 1536 1535 1533 1534 1532 1534 1534 1535 1534 1534 1533 1532 1532 1530 1527 1525 1524 1524 1524
1515 1519 1521 1523 1527 1528 1529 1532 1532 1535 1535 1537 1539 1539 1540 1541 1539 1538 1537 1538 1537 1537 1537 1536 1534 1533 1531 1530 1533 1532 1532 1531 1531 1531 1530 1530 1530 1529 1527 1524 1524 1524 1524
1512 1516 1518 1520 1523 1525 1527 1527 1528 1531 1532 1533 1535 1537 1537 1538 1537 1537 1536 1534 1535 1536 1534 1534 1532 1531 1531 1528 1529 1531 1532 1531 1531 1531 1529 1528 1526 1526 1527 1524 1522 1523 1521
1509 1513 1515 1516 1519 1520 1522 1521 1523 1528 1530 1530 1532 1533 1534 1535 1535 1536 1534 1531 1531 1532 1531 1529 1530 1529 1529 1527 1526 1526 1526 1527 1527 1527 1526 1525 1524 1524 1525 1524 1520 1518 1519
1506 1509 1510 1512 1513 1516 1515 1516 1517 1522 1523 1526 1528 1528 1531 1532 1532 1533 1531 1531 1528 1528 1528 1525 1526 1525 1524 1524 1522 1521 1521 1521 1522 1523 1522 1521 1522 1520 1521 1520 1517 1515 1514
1502 1502 1505 1505 1506 1510 1510 1510 1518 1518 1519 1524 1523 1527 1526 1526 1525 1526 1526 1527 1528 1526 1524 1522 1523 1522 1521 1520 1520 1518 1518 1519 1519 1519 1520 1517 1515 1515 1516 1514 1514 1513 1514
1494 1497 1496 1499 1506 1507 1506 1504 1511 1513 1517 1519 1520 1521 1521 1523 1523 1524 1523 1524 1523 1520 1520 1518 1517 1517 1517 1517 1515 1515 1514 1515 1514 1515 1514 1515 1513 1512 1512 1510 1507 1507 1506
1488 1491 1495 1495 1499 1501 1502 1505 1506 1509 1511 1514 1516 1516 1515 1518 1519 1520 1519 1520 1518 1517 1516 1516 1514 1512 1512 1512 1513 1511 1510 1512 1511 1512 1512 1512 1510 1507 1508 1506 1504 1501 1500
1484 1485 1487 1490 1493 1495 1497 1501 1503 1506 1509 1509 1510 1513 1513 1512 1513 1515 1513 1511 1512 1516 1516 1514 1510 1509 1509 1509 1510 1510 1508 1509 1508 1509 1509 1507 1506 1505 1503 1502 1500 1499 1496
1477 1480 1481 1486 1488 1492 1493 1494 1499 1502 1503 1506 1509 1507 1506 1507 1507 1508 1508 1509 1508 1507 1507 1509 1506 1506 1507 1505 1506 1505 1505 1505 1505 1504 1504 1503 1501 1503 1501 1498 1497 1495 1496
1473 1477 1477 1481 1484 1487 1489 1490 1493 1498 1499 1501 1503 1503 1501 1501 1501 1500 1501 1504 1505 1504 1501 1504 1504 1503 1502 1503 1502 1501 1501 1501 1502 1502 1501 1500 1499 1498 1499 1496 1494 1493 1493
1473 1473 1473 1478 1479 1482 1484 1487 1488 1492 1495 1496 1496 1498 1497 1495 1496 1496 1496 1497 1497 1498 1497 1499 1499 1500 1500 1500 1499 1498 1499 1498 1498 1497 1497 1496 1496 1495 1494 1493 1492 1491 1491
1470 1470 1471 1473 1475 1477 1480 1484 1485 1488 1490 1491 1491 1492 1493 1491 1491 1491 1491 1492 1494 1491 1490 1492 1493 1495 1496 1495 1496 1495 1494 1493 1494 1495 1494 1494 1494 1493 1490 1489 1489 1489 1488
1466 1468 1468 1470 1473 1474 1477 1479 1482 1483 1485 1486 1487 1488 1488 1487 1486 1486 1486 1488 1488 1487 1485 1487 1489 1490 1492 1492 1492 1491 1491 1490 1491 1491 1490 1491 1490 1489 1488 1487 1487 1487 1485
1463 1464 1466 1467 1468 1471 1472 1475 1479 1479 1480 1481 1482 1481 1481 1481 1480 1480 1480 1482 1481 1481 1481 1482 1484 1487 1487 1486 1488 1487 1487 1487 1488 1489 1487 1487 1486 1486 1486 1485 1484 1484 1484
1459 1460 1462 1465 1465 1467 1469 1472 1473 1475 1476 1476 1475 1476 1476 1475 1474 1473 1474 1477 1478 1477 1478 1478 1481 1482 1483 1483 1485 1485 1483 1485 1486 1485 1484 1483 1484 1484 1484 1484 1483 1482 1483
1456 1458 1459 1460 1461 1462 1464 1466 1468 1469 1471 1471 1469 1468 1468 1472 1469 1466 1468 1470 1471 1473 1475 1476 1474 1476 1479 1478 1481 1482 1481 1483 1482 1482 1482 1481 1482 1481 1481 1481 1482 1483 1483
1452 1453 1455 1456 1457 1456 1458 1459 1462 1462 1463 1464 1465 1465 1462 1464 1464 1464 1464 1465 1467 1470 1470 1475 1473 1474 1475 1472 1476 1478 1479 1479 1479 1479 1479 1479 1479 1480 1480 1480 1481 1482 1483
1447 1448 1448 1449 1452 1449 1450 1453 1454 1454 1456 1458 1461 1460 1458 1459 1459 1460 1462 1462 1465 1466 1466 1469 1470 1471 1469 1470 1473 1475 1475 1476 1476 1476 1477 1477 1478 1479 1479 1479 1480 1482 1482
1444 1444 1443 1444 1444 1443 1444 1446 1449 1451 1451 1450 1454 1454 1453 1454 1455 1453 1458 1459 1460 1463 1462 1464 1464 1465 1466 1468 1470 1471 1472 1473 1474 1474 1475 1477 1476 1477 1479 1479 1480 1481 1482